Location: Dalton
(34.7700°N, 84.9700°W)
Time: 00:03:14
(UTC-04:00)

Tiangong 2 - Pass Details

Date: 11 October 2017
Orbit: 388 x 392 km, 42.8° (Epoch: 17 October)

Event Time Altitude Azimuth Distance (km) Brightness Sun altitude
Exits shadow 06:11:07 32° 356° (N) 689 2.3 -19.6°
Drops below altitude 10° 06:13:44 10° 49° (NE) 1,422 4.7 -19.0°
Sets 06:15:56 0° 59° (ENE) 2,279 6.1 -18.6°
